This is the latest recevied weather packets stored in our database for station/object HS3UAA-1. If no packets are shown the sender has not sent any weather packets the latest 10 day(s).
| Time | Temp. | Humidity | Pressure | Rain* | Wind** | Luminosity | Snow |
|---|---|---|---|---|---|---|---|
| 1777860124 | 28.33° C | 45% | 998 hPa | - | - | 0 W/m² | - |
| 1777859802 | 28.33° C | 45% | 998 hPa | - | - | 0 W/m² | - |
| 1777859480 | 28.33° C | 43% | 998 hPa | - | - | 0 W/m² | - |
| 1777859158 | 28.33° C | 43% | 998 hPa | - | - | 0 W/m² | - |
| 1777858836 | 28.33° C | 44% | 998 hPa | - | - | 0 W/m² | - |
| 1777858514 | 28.33° C | 47% | 998 hPa | - | - | 0 W/m² | - |
| 1777858191 | 28.33° C | 49% | 998 hPa | - | - | 0 W/m² | - |
| 1777857869 | 28.33° C | 51% | 998 hPa | - | - | 0 W/m² | - |
| 1777857547 | 28.33° C | 48% | 998 hPa | - | - | 0 W/m² | - |
| 1777857225 | 28.89° C | 48% | 998 hPa | - | - | 0 W/m² | - |
| 1777856903 | 28.89° C | 48% | 998 hPa | - | - | 0 W/m² | - |
| 1777856581 | 28.33° C | 47% | 998 hPa | - | - | 0 W/m² | - |
| 1777856017 | 28.33° C | 52% | 998 hPa | - | - | 0 W/m² | - |
| 1777855694 | 28.33° C | 51% | 998 hPa | - | - | 0 W/m² | - |
| 1777855372 | 28.33° C | 51% | 998 hPa | - | - | 0 W/m² | - |
| 1777855052 | 28.33° C | 51% | 998 hPa | - | - | 0 W/m² | - |
| 1777854728 | 28.33° C | 50% | 998 hPa | - | - | 0 W/m² | - |
| 1777854406 | 28.89° C | 49% | 998 hPa | - | - | 0 W/m² | - |
| 1777854084 | 28.89° C | 46% | 998 hPa | - | - | 0 W/m² | - |
| 1777853762 | 30° C | 44% | 997 hPa | - | - | 0 W/m² | - |
| 1777853440 | 31.11° C | 47% | 997 hPa | - | - | 0 W/m² | - |
| 1777853118 | 32.78° C | 50% | 997 hPa | - | - | 0 W/m² | - |
| 1777852796 | 32.78° C | 51% | 997 hPa | - | - | 0 W/m² | - |
| 1777852474 | 33.33° C | 50% | 997 hPa | - | - | 0 W/m² | - |
| 1777852152 | 33.33° C | 50% | 997 hPa | - | - | 0 W/m² | - |
* Rain since midnight (hover to see other rain measurements)
** Current wind speed in m/s (hover to see current wind gust speed)